NOAA NWS Hourly Roundups by Site

Regional Weather Roundup for Upton, NY

To Select Another Site Choose from List

Select Site:  

000
ASUS41 KOKX 250113
RWROKX

Regional Weather Roundup
National Weather Service New York NY
900 PM EDT FRI MAY 24 2019

Note: "FAIR" indicates few or no clouds below 12,000 feet with no
significant weather and/or obstructions to visibility.

NYZ071-072-176-178-NJZ106-104-250200-
New York City Metro Area

CITY           SKY/WX    TMP DP  RH WIND       PRES   REMARKS
Central Park   FAIR      66  48  52 MISG      30.13R
Bronx Lehman C   N/A     64  48  55 N10         N/A
LaGuardia Arpt FAIR      67  48  50 NW16G24   30.09R
Queens College   N/A     66  48  52 NW12        N/A
Kennedy Intl   FAIR      67  50  54 NW16      30.09R
Breezy Point     N/A     66 N/A N/A N12         N/A
Brooklyn Coll    N/A     66  48  52 NW14        N/A
Staten Island    N/A     66  50  55 N9          N/A
Newark/Liberty FAIR      67  49  52 N15       30.10R
Teterboro      FAIR      65  48  54 NW12G22   30.09R
$$

NYZ177-179-078>081-250200-
Long Island New York

CITY           SKY/WX    TMP DP  RH WIND       PRES   REMARKS
Jones Beach      N/A     66 N/A N/A NW16        N/A
Wantagh          N/A     66  50  55 NW8         N/A
Hempstead        N/A     66  52  59 N3        30.12R
Matinecock Pt    N/A     64 N/A N/A NW12        N/A
Farmingdale    FAIR      66  50  56 N10       30.08R
MacArthur/ISP  MOCLDY    67  51  56 N13       30.07R
Stony Brook      N/A     66  52  59 N5          N/A
Shirley        CLOUDY    67  50  54 NW9       30.07R
Mt Sinai Harb    N/A    N/A N/A N/A NW7         N/A
Westhampton    CLOUDY    67  52  58 N10       30.08R
East Hampton   CLOUDY    57  49  75 S5        30.07R
Southold         N/A     64  52  63 N9          N/A
Montauk          N/A     60  48  64 VRB6      30.07R
$$

NYZ052-065-067-250200-
Hudson Valley

CITY           SKY/WX    TMP DP  RH WIND       PRES   REMARKS
White Plains   FAIR      63  49  60 NW8       30.10R
Larchmont Harb   N/A     64 N/A N/A W12         N/A
Croton On Huds   N/A     64 N/A N/A NW7         N/A
Somers           N/A     61  50  67 NW3         N/A
Brewster         N/A     61  50  67 N6          N/A
Newburgh       PTCLDY    61  52  72 NW9       30.11R
Montgomery     MOCLDY    58  50  75 NW6       30.11R
Otisville        N/A     59  48  67 NW5         N/A
Warwick          N/A     59  48  67 SW1         N/A
Suffern          N/A     61  48  63 NW5         N/A
Poughkeepsie   CLOUDY    64  50  60 NW3       30.10R
Albany         CLOUDY    60  48  64 NE12G22   30.13R
$$

NJZ001-105-106-008-010-013-015-019>022-104-250200-
New Jersey

CITY           SKY/WX    TMP DP  RH WIND       PRES   REMARKS
Newark/Liberty FAIR      67  49  52 N15       30.10R
Teterboro      FAIR      65  48  54 NW12G22   30.09R
Caldwell       FAIR      65  49  56 VRB3      30.12R
Somerville     FAIR      67  49  52 N8        30.08R
Linden         FAIR      67  49  51 N13       30.10R
Perth Amboy      N/A     68 N/A N/A N12         N/A
Sussex         FAIR      62  49  62 N8        30.13R
Andover          N/A     62  50  64 VRB5      30.12R
Trenton        FAIR      68  50  52 N6        30.07R
Millville      FAIR      68  58  70 W3        30.05R
Atlantic City  FAIR      71  52  50 N6        30.06R
Wrightstown    FAIR      67  51  56 N9        30.05R
Toms River     FAIR      68  53  58 NE8       30.08R
Belmar         FAIR      68  51  54 N8        30.10R
$$

PAZ047>061-062-071-250200-
Eastern Pennsylvania

CITY           SKY/WX    TMP DP  RH WIND       PRES   REMARKS
Philadelphia   CLOUDY    75  50  41 N14       30.06R
Allentown      FAIR      71  51  49 N9        30.09R
Scranton       FAIR      63  50  62 NE9       30.14R
$$

CTZ002-004>006-009-010-012-RIZ004-006-007-MAZ004-011-015-250200-
Southern New England

 In CT

CITY           SKY/WX    TMP DP  RH WIND       PRES   REMARKS
Bradley Intl   MOCLDY    65  51  60 N12       30.07R
Hartford       MOCLDY    66  51  58 N12G17    30.06R
Danbury        CLOUDY    64  49  57 N8        30.11R
Wtrbury/Oxford CLOUDY    63  52  67 N9        30.10R
Norwalk Harbor   N/A     66 N/A N/A NW13        N/A
Bridgeport     MOCLDY    68  51  54 NW9       30.07R
Meriden        CLOUDY    67  49  52 N13G20    30.07R
New Haven      CLOUDY    70  52  52 N8        30.07R
Chester        CLOUDY    66  52  59 N6G13     30.07R
Groton         CLOUDY    69  48  47 N12       30.05R
Willimantic    CLOUDY    64  48  56 NE9       30.07R

 In RI

CITY           SKY/WX    TMP DP  RH WIND       PRES   REMARKS
Providence     CLOUDY    59  46  62 NE13G21   30.08R
Block Island   CLOUDY    57  49  74 NE10      30.07R
Westerly       CLOUDY    64  51  62 NE8       30.06R

In MA

CITY           SKY/WX    TMP DP  RH WIND       PRES   REMARKS
Boston         MOCLDY    58  45  62 NE8       30.09R
Worcester      CLOUDY    59  46  62 N8        30.09R
Westfield      CLOUDY    64  47  53 N13       30.08R
Provincetown   CLOUDY    52  46  80 NE13      30.08R
Nantucket      CLOUDY    51  47  86 N28G40    30.04R
$$

ANZ330-335-338-340-345-350-353-355-250200-
Coastal Marine Observations


STATION/POSITION TIME  SKY/WX   TEMP    WIND        PRES    VSBY  WAVE
                                AIR SEA DIR/SP/G                  HT/PER
                 (UTC)          (F)     (DEG/KT/KT) (MB)    (MI)  (FT/S)
NY Harb Entrance 0050            64 59  340/ 14/ 16 1018.4          3/ 7
20 S Fire Island 0050            63 58  330/ 14/ 14 1017.7          3/ 7
Great South Bay  0015            68 65  340/ 10/ 16   N/A
23 SSW Montauk P 0050            56 54  100/  6/  8 1018.2          4/ 8
15 E Barnegat Li 0030               59                N/A           4/ 7
Hudson Canyon    0050            59 54  330/ 12/ 17 1018.3          4/ 7
Kings Point      0048            64 60   10/ 14/ 19 1020.0
Execution Rocks  NOT AVBL
Western LI Sound NOT AVBL
Central LI Sound NOT AVBL
Robbins Reef     0048            67     340/ 15/ 20 1018.8
$$


>>>>>>>>>>>>>>>>>>>>>>>>>>>> KEY <<<<<<<<<<<<<<<<<<<<<<<<<<<
>                                                          <
>     SKY/WX - Sky Condition/Present Weather               <
>     TMP    - Temperature in Fahrenheit                   <
>     DP     - Dew Point in Fahrenheit                     <
>     RH     - Relative Humidity in Percent                <
>     WIND   - Direction (from) and Speed in MPH           <
>     PRES   - Mean Sea Level Pressure (inches of Hg)      <
>     WCI    - Wind Chill Index                            <
>     VSB    - Visibility in Miles                         <
>     HX     - Heat Index                                  <
>     TC     - Temperature in Celsius                      <
>     VRB    - Variable Wind Direction                     <
>                                                          <
>>>>>>>>>>>>>>>>>>>>>>>>>>>> KEY <<<<<<<<<<<<<<<<<<<<<<<<<<<



 

View Past Reports for Upton, NY.

Products Courtesy of NOAA-NWS
NWS Information Parsing Script by Ken True at Saratoga Weather - Script by SE Lincoln Weather.